Location: Blazny
(46.0612°N, 84.4033°W)
Time: 19:58:48
(UTC-04:00)

Envisat - Pass Details

Date: 19 September 2024
Orbit: 762 x 764 km, 98.3° (Epoch: 11 October)

Event Time Altitude Azimuth Distance (km) Brightness Sun altitude
Rises 05:55:30 0° 4° (N) 3,238 6.5 -15.4°
Reaches altitude 10° 05:58:04 10° 353° (N) 2,307 5.6 -15.0°
Maximum altitude 06:02:20 28° 296° (WNW) 1,403 4.0 -14.3°
Enters shadow 06:04:29 21° 258° (WSW) 1,675 4.1 -14.0°
